Weather History for KUZA - January, 2013

Change the Weather History Date:

Friday, January 4, 2013

  Actual Average Record
Temperature  
Mean Temperature 38 °F -  
Max Temperature 50 °F 53 °F 76 °F (1950)
Min Temperature 25 °F 34 °F 10 °F (2002)
Degree Days  
Heating Degree Days 28    
Moisture  
Dew Point 26 °F    
Average Humidity 75    
Maximum Humidity 100    
Minimum Humidity 39    
Precipitation  
Precipitation 0.00 in - - ()
Sea Level Pressure  
Sea Level Pressure 30.31 in    
Wind  
Wind Speed 2 mph (WNW)    
Max Wind Speed 10 mph    
Max Gust Speed -    
Visibility 7 miles    
Events      
Averages and records for this station are not official NWS values.
T = Trace of Precipitation, MM = Missing Value Source: NWS Daily Summary

Daily Weather History Graph

Daily Weather History Graph

Search for Another Location

Airport or City:

Trip Planner

Search our weather history database for the weather conditions in past years. The results will help you decide how hot, cold, wet, or windy it might be!

Date:

Astronomy

Jan. 04, 2013 Rise Set
Actual Time 7:32 AM EST 5:26 PM EST
Civil Twilight 7:04 AM EST 5:54 PM EST
Nautical Twilight 6:33 AM EST 6:25 PM EST
Astronomical Twilight 6:02 AM EST 6:56 PM EST
Moon No Moon Rise 11:32 AM EST (1/4)
Length of Visible Light 10h 49m
Length of Day
9h 53m
Waning Gibbous, 55% of the Moon is Illuminated
Jan 4
Waning Gibbous
Jan 4
Last Quarter
Jan 11
New
Jan 18
First Quarter
Jan 26
Full

Hourly Weather History & Observations

Time (EST) Temp. Windchill Dew Point Humidity Pressure Visibility Wind Dir Wind Speed Gust Speed Precip Events Conditions
12:01 AM 28.9 °F - 28.9 °F 100% 30.27 in 2.0 mi Calm Calm - N/A   Clear
12:18 AM 30.9 °F - 28.0 °F 89% 30.27 in 2.0 mi Calm Calm - N/A   Partly Cloudy
12:32 AM 28.9 °F - 28.0 °F 96% 30.27 in 3.0 mi Calm Calm - N/A   Partly Cloudy
12:35 AM 28.9 °F - 28.0 °F 96% 30.27 in 1.8 mi Calm Calm - N/A   Partly Cloudy
12:41 AM 28.0 °F - 27.0 °F 96% 30.28 in 0.8 mi Calm Calm - N/A   Mist
12:45 AM 28.0 °F - 27.0 °F 96% 30.28 in 1.0 mi Calm Calm - N/A   Clear
12:52 AM 28.4 °F - 28.4 °F 100% 30.28 in 3.0 mi Calm Calm - N/A   Clear
12:54 AM 28.9 °F - 28.0 °F 96% 30.31 in 3.0 mi Calm Calm - N/A   Clear
1:54 AM 30.9 °F - 28.0 °F 89% 30.32 in 6.0 mi Calm Calm - N/A   Clear
2:54 AM 27.0 °F - 27.0 °F 100% 30.32 in 5.0 mi Calm Calm - N/A   Clear
3:54 AM 26.1 °F - 25.0 °F 96% 30.31 in 4.0 mi Calm Calm - N/A   Clear
4:54 AM 26.1 °F - 25.0 °F 96% 30.31 in 5.0 mi Calm Calm - N/A   Clear
5:54 AM 25.0 °F 20.7 °F 24.1 °F 96% 30.31 in 6.0 mi SW 3.5 mph - N/A   Clear
6:54 AM 25.0 °F - 24.1 °F 96% 30.34 in 6.0 mi Calm Calm - N/A   Clear
7:54 AM 27.0 °F - 26.1 °F 96% 30.34 in 4.0 mi Calm Calm - N/A   Clear
8:54 AM 32.0 °F - 30.9 °F 96% 30.36 in 5.0 mi Calm Calm - N/A   Clear
9:54 AM 39.0 °F - 28.9 °F 67% 30.38 in 10.0 mi Calm Calm - N/A   Clear
10:54 AM 44.1 °F - 26.1 °F 49% 30.36 in 10.0 mi Calm Calm - N/A   Clear
11:54 AM 46.0 °F 42.5 °F 27.0 °F 47% 30.34 in 10.0 mi WSW 6.9 mph - N/A   Clear
12:54 PM 46.9 °F - 26.1 °F 44% 30.30 in 10.0 mi West 6.9 mph - N/A   Clear
1:54 PM 48.9 °F - 26.1 °F 41% 30.27 in 10.0 mi West 8.1 mph - N/A   Clear
2:54 PM 50.0 °F - 26.1 °F 39% 30.25 in 10.0 mi WNW 8.1 mph - N/A   Clear
3:54 PM 50.0 °F - 26.1 °F 39% 30.26 in 10.0 mi West 9.2 mph - N/A   Clear
4:54 PM 48.9 °F - 25.0 °F 39% 30.26 in 10.0 mi West 4.6 mph - N/A   Clear
6:54 PM 35.1 °F - 27.0 °F 72% 30.32 in 10.0 mi Calm Calm - N/A   Clear
7:54 PM 37.9 °F 32.7 °F 24.1 °F 57% 30.34 in 10.0 mi North 6.9 mph - N/A   Clear
8:54 PM 35.1 °F 28.6 °F 19.9 °F 54% 30.34 in 10.0 mi North 8.1 mph - N/A   Clear
9:54 PM 34.0 °F 29.8 °F 18.0 °F 52% 30.35 in 10.0 mi North 4.6 mph - N/A   Clear
10:54 PM 30.9 °F 22.2 °F 19.0 °F 61% 30.35 in 10.0 mi North 10.4 mph - N/A   Clear
11:54 PM 35.1 °F 30.1 °F 19.9 °F 54% 30.35 in 10.0 mi North 5.8 mph - N/A   Clear